• Processing (Info)

  • MPEC 2010-T113: 2010 TO55

    The following Minor Planet Electronic Circular may be linked-to from your own Web pages, but must not otherwise be redistributed electronically.

    A form allowing access to any MPEC is at the bottom of this page.


    Read MPEC 2010-T112 Read MPEC 2010-T114


    M.P.E.C. 2010-T113                               Issued 2010 Oct. 13, 23:28 UT
    
         The Minor Planet Electronic Circulars contain information on unusual
             minor planets and routine data on comets.  They are published
       on behalf of Commission 20 of the International Astronomical Union by the
              Minor Planet Center, Smithsonian Astrophysical Observatory,
                              Cambridge, MA 02138, U.S.A.
    
                 Prepared using the Tamkin Foundation Computer Network
    
                                  MPC@CFA.HARVARD.EDU
           URL https://www.minorplanetcenter.org/iau/mpc.html  ISSN 1523-6714
    
                                       2010 TO55
    
    Observations:
         K10T55O* C2010 10 13.31931 03 13 54.48 +14 55 00.7          17.8 V ET113703
         K10T55O  C2010 10 13.32625 03 14 08.62 +14 52 37.9          17.9 V ET113703
         K10T55O  C2010 10 13.33324 03 14 22.74 +14 50 15.8          18.1 V ET113703
         K10T55O  C2010 10 13.34019 03 14 36.67 +14 47 54.4          17.9 V ET113703
         K10T55O KC2010 10 13.39503103 16 08.75 +14 27 38.0          18.0 V ET113H21
         K10T55O KC2010 10 13.39785803 16 14.34 +14 26 40.0          17.9 V ET113H21
         K10T55O KC2010 10 13.40066003 16 19.87 +14 25 42.8          18.0 V ET113H21
         K10T55O KC2010 10 13.40346303 16 25.39 +14 24 45.5          17.9 V ET113H21
         K10T55O KC2010 10 13.40626903 16 30.93 +14 23 48.2          18.2 V ET113H21
         K10T55O  C2010 10 13.40794 03 16 48.75 +14 25 01.7          18.1 V ET113703
         K10T55O  C2010 10 13.40852 03 16 49.86 +14 24 49.2          18.0 V ET113703
         K10T55O KC2010 10 13.40907003 16 36.45 +14 22 51.3          18.0 V ET113H21
         K10T55O  C2010 10 13.40965 03 16 49.48 +14 24 06.1          17.8 R ET113H01
         K10T55O  C2010 10 13.41117 03 16 54.91 +14 23 56.8          18.1 V ET113703
         K10T55O KC2010 10 13.41187303 16 41.97 +14 21 54.4          18.1 V ET113H21
         K10T55O KC2010 10 13.41444703 16 47.05 +14 21 01.8          17.8 V ET113H21
         K10T55O  C2010 10 13.41770 03 17 07.36 +14 21 45.4          17.8 V ET113703
         K10T55O  C2010 10 13.41981 03 17 08.90 +14 20 41.4          18.0 R ET113H01
         K10T55O  C2010 10 13.42421 03 17 19.68 +14 19 35.0          17.8 V ET113703
         K10T55O  C2010 10 13.42821 03 17 24.89 +14 17 53.0          17.6 R ET113H01
         K10T55O  C2010 10 13.43076 03 17 31.92 +14 17 25.0          17.3 V ET113703
         K10T55O  C2010 10 13.43231 03 17 32.67 +14 16 30.9          18.1 R ET113H01
         K10T55O  C2010 10 13.43729 03 17 43.07 +14 15 19.5          18.7 V ET113H11
         K10T55O  C2010 10 13.43787 03 17 44.15 +14 15 07.4          18.7 V ET113H11
         K10T55O  C2010 10 13.43846 03 17 45.20 +14 14 56.5          17.9 V ET113H11
         K10T55O  C2010 10 13.43906 03 17 46.44 +14 14 42.8          19.0 V ET113H11
         K10T55O  C2010 10 13.43969 03 17 47.55 +14 14 30.9          18.7 V ET113H11
         K10T55O  C2010 10 13.44025 03 17 48.57 +14 14 20.9          18.9 V ET113H11
         K10T55O  C2010 10 13.44140 03 17 52.11 +14 13 51.7          18.0 V ET113703
         K10T55O  C2010 10 13.44902 03 18 06.44 +14 11 20.1          18.2 V ET113703
         K10T55O  C2010 10 13.45674 03 18 20.91 +14 08 46.5          18.0 V ET113703
         K10T55O  C2010 10 13.46442 03 18 35.38 +14 06 13.8          17.6 V ET113703
         K10T55O KC2010 10 13.87655 03 32 07.78 +12 03 05.2          17.0 R ET113A17
         K10T55O KC2010 10 13.88135 03 32 15.18 +12 01 52.3          18.5 R ET113A17
         K10T55O KC2010 10 13.88477 03 32 20.52 +12 01 02.2          18.4 R ET113A17
         K10T55O KC2010 10 13.89821 03 32 39.26 +11 57 36.8          17.7 R ET113113
         K10T55O KC2010 10 13.89948 03 32 41.13 +11 57 16.4          18.4 R ET113113
         K10T55O KC2010 10 13.90067 03 32 42.94 +11 57 00.4          18.3 R ET113113
         K10T55O KC2010 10 13.90177 03 32 44.57 +11 56 43.0          18.3 R ET113113
         K10T55O KC2010 10 13.90299 03 32 46.46 +11 56 24.4          18.3 R ET113113
    
    Observer details:
    113 Volkssternwarte Drebach, Schoenbrunn.  Observer J. Kandler.  0.5-m f/5
        reflector + CCD.
    703 Catalina Sky Survey.  Observer A. D. Grauer.  Measurers J. D. Ahern,
        E. C. Beshore, A. Boattini, G. J. Garradd, A. R. Gibbs, A. D. Grauer,
        R. E. Hill, R. A. Kowalski, S. M. Larson, R. H. McNaught.  0.68-m Schmidt
        + CCD.
    A17 Guidestar Observatory, Weinheim.  Observers M. Emmerich, S. Melchert.
        0.36-m f/6 Schmidt-Cassegrain + CCD.
    H01 Magdalena Ridge Observatory, Socorro.  Observer W. H. Ryan.  2.4-m f/8.9
        reflector + CCD.
    H11 LightBuckets Observatory, Rodeo.  Observer T. Vorobjov.  0.61-m f/8
        Ritchey-Chretien + CCD.
    H21 Astronomical Research Observatory, Westfield.  Observer R. Holmes.
        Measurer S. Foglia.  0.61-m f/4.0 astrograph + CCD.
    
    Orbital elements:
    2010 TO55                                                Earth MOID = 0.0064 AU
    Epoch 2010 July 23.0 TT = JDT 2455400.5                 MPC
    M 330.15001              (2000.0)            P               Q
    n   0.45264142     Peri.  161.01810     +0.99950876     -0.01318180
    a   1.6799635      Node   199.80196     +0.00326233     +0.94607868
    e   0.4100184      Incl.    4.81464     +0.03117048     +0.32366860
    P   2.18           H   26.5           G   0.15           U   6
    Residuals in seconds of arc
    101013 703  0.1+  0.1+    101013 H21  0.2+  0.4+    101013 703  0.1+  0.2-
    101013 703  0.5+  0.5-    101013 H21  0.4+  0.1+    101013 703  0.2+  0.1-
    101013 703  0.6+  0.3+    101013 703  0.5+  0.3-    101013 703  0.2+  0.3-
    101013 703  0.3+  0.8+    101013 H01  0.1+  0.1+    101013 703  1.6+  0.8-
    101013 H21  0.1+  0.3+    101013 703  0.2+  0.3-    101013 A17  0.3+  0.5+
    101013 H21  0.2+  0.1+    101013 H01  0.1+  0.3+    101013 A17  0.4-  0.2-
    101013 H21  0.2+  0.2+    101013 703  1.9-  0.7+    101013 A17  0.5+  1.0+
    101013 H21  0.0   0.1+    101013 H01  0.0   0.3+    101013 113  0.4+  0.4+
    101013 H21  0.2+  0.0     101013 H11  0.6+  0.3+    101013 113  0.2-  1.0-
    101013 703  0.1+  0.1+    101013 H11  0.4+  0.3-    101013 113  0.1+  0.8+
    101013 703  0.1+  0.8-    101013 H11  0.5-  0.6+    101013 113  0.2-  0.2-
    101013 H21  0.2+  0.2+    101013 H11  1.0+  1.1-    101013 113  0.7+  0.6-
    101013 H01  0.1+  0.5+    101013 H11  0.1-  0.4-
    101013 703  0.1+  0.1+    101013 H11  0.6-  0.8+
    
    Ephemeris:
    2010 TO55                a,e,i = 1.68, 0.41, 5                   q = 0.9911
    Date    TT    R. A. (2000) Decl.     Delta      r     Elong.  Phase     V
    2010 10 11    23 19.79   +34 38.2    0.00601  1.003   143.2    36.5    16.9
    2010 10 12    01 48.31   +25 51.2    0.00733  1.005   159.0    20.8    16.9
    2010 10 13    02 59.89   +17 00.7    0.0102   1.007   152.0    27.8    17.8
    2010 10 14    03 34.91   +11 39.7    0.0136   1.009   145.4    34.1    18.6
    2010 10 15    03 54.73   +08 23.7    0.0173   1.011   141.5    37.9    19.2
    2010 10 16    04 07.26   +06 15.4    0.0210   1.013   139.2    40.0    19.7
    2010 10 17    04 15.80   +04 46.0    0.0249   1.015   137.8    41.3    20.1
    2010 10 18    04 21.95   +03 40.7    0.0288   1.018   137.0    41.9    20.5
    2010 10 19    04 26.54   +02 51.2    0.0327   1.020   136.6    42.1    20.8
    2010 10 20    04 30.06   +02 12.4    0.0367   1.023   136.5    42.1    21.0
    2010 10 21    04 32.82   +01 41.5    0.0406   1.025   136.6    41.9    21.2
    2010 10 22    04 35.01   +01 16.4    0.0446   1.028   136.8    41.5    21.4
    2010 10 23    04 36.75   +00 55.7    0.0486   1.031   137.1    41.0    21.6
    2010 10 24    04 38.15   +00 38.5    0.0526   1.034   137.6    40.5    21.8
    2010 10 25    04 39.27   +00 24.1    0.0566   1.037   138.1    39.9    21.9
    2010 10 26    04 40.15   +00 12.0    0.0606   1.040   138.6    39.2    22.1
    2010 10 27    04 40.84   +00 01.7    0.0646   1.044   139.2    38.5    22.2
    2010 10 28    04 41.37   -00 06.9    0.0687   1.047   139.9    37.7    22.3
    2010 10 29    04 41.75   -00 14.1    0.0727   1.051   140.5    36.9    22.4
    2010 10 30    04 42.00   -00 20.1    0.0768   1.054   141.2    36.2    22.5
    2010 10 31    04 42.15   -00 25.0    0.0809   1.058   142.0    35.3    22.6
    
    Timothy B. Spahr             (C) Copyright 2010 MPC           M.P.E.C. 2010-T113
    

    Read MPEC 2010-T112 Read MPEC 2010-T114


    MPEC number:

    Enter an MPEC number in one of the following forms:

    • 1997-B01 (the full form)
    • J97B01 (the packed version of the full form)
    • B01 (the abbreviated form)